When you browse on this site, cookies collect data to enhance your experience and personalize the content and advertising you see.
Visit our Privacy Policy to learn more. By continuing to use the site, you agree to this use of cookies and data.
  • în România
  • Lista ţărilor
  • Pe 7 zile
  • Temperatura apei
  • Meteo pe hartă
  • Widget-uri
  • user-avatar
    Intrare

    Meteo pe oră la Lubango

    Astăzi, 15 Decembrie, Duminică

    Timp Temperatura Precipitaţii Vânt Presiune Umiditate
    00:00 +17°C° 0 mm 0 m/s 608 mmHg 63%
    01:00 +19°C° 0 mm 1 m/s 608 mmHg 67%
    02:00 +18°C° 0.1 mm 1 m/s 608 mmHg 68%
    03:00 +18°C° 0.1 mm 1 m/s 608 mmHg 69%
    04:00 +18°C° 0.1 mm 1 m/s 607 mmHg 70%
    05:00 +19°C° 0.1 mm 1 m/s 608 mmHg 68%
    06:00 +20°C° 0.1 mm 1 m/s 609 mmHg 66%
    07:00 +21°C° 0 mm 1 m/s 610 mmHg 63%
    08:00 +23°C° 0 mm 1 m/s 610 mmHg 57%
    09:00 +25°C° 0 mm 2 m/s 611 mmHg 51%
    10:00 +26°C° 0 mm 3 m/s 612 mmHg 45%
    11:00 +26°C° 0.1 mm 2 m/s 611 mmHg 45%
    12:00 +27°C° 0.1 mm 2 m/s 610 mmHg 46%
    13:00 +27°C° 0.1 mm 2 m/s 610 mmHg 46%
    14:00 +26°C° 0.6 mm 2 m/s 609 mmHg 51%
    15:00 +25°C° 0.6 mm 2 m/s 608 mmHg 56%
    16:00 +24°C° 0.6 mm 2 m/s 608 mmHg 60%
    17:00 +21°C° 1.2 mm 2 m/s 607 mmHg 70%
    18:00 +19°C° 1.2 mm 2 m/s 607 mmHg 81%
    19:00 +17°C° 1.2 mm 2 m/s 607 mmHg 91%
    20:00 +18°C° 0.3 mm 1 m/s 607 mmHg 90%
    21:00 +18°C° 0.3 mm 1 m/s 608 mmHg 90%
    22:00 +18°C° 0.3 mm 1 m/s 608 mmHg 90%
    23:00 +18°C° 0 mm 1 m/s 608 mmHg 90%

    Mâine, 16 Decembrie, Luni

    Timp Temperatura Precipitaţii Vânt Presiune Umiditate
    00:00 +16°C° 0 mm 0 m/s 607 mmHg 91%
    01:00 +15°C° 0 mm 0 m/s 607 mmHg 92%
    02:00 +15°C° 0 mm 0 m/s 607 mmHg 90%
    03:00 +15°C° 0 mm 0 m/s 607 mmHg 88%
    04:00 +15°C° 0 mm 0 m/s 607 mmHg 86%
    05:00 +16°C° 0 mm 0 m/s 607 mmHg 83%
    06:00 +17°C° 0 mm 0 m/s 608 mmHg 80%
    07:00 +17°C° 0 mm 0 m/s 609 mmHg 77%
    08:00 +21°C° 0.2 mm 1 m/s 609 mmHg 69%
    09:00 +23°C° 0.2 mm 1 m/s 610 mmHg 62%
    10:00 +24°C° 0.2 mm 2 m/s 610 mmHg 55%
    11:00 +24°C° 1.5 mm 2 m/s 610 mmHg 57%
    12:00 +24°C° 1.5 mm 2 m/s 609 mmHg 60%
    13:00 +24°C° 1.5 mm 2 m/s 609 mmHg 62%
    14:00 +23°C° 1.7 mm 1 m/s 608 mmHg 67%
    15:00 +22°C° 1.7 mm 1 m/s 608 mmHg 73%
    16:00 +21°C° 1.7 mm 1 m/s 607 mmHg 78%
    17:00 +20°C° 1 mm 1 m/s 607 mmHg 82%
    18:00 +19°C° 1 mm 1 m/s 607 mmHg 85%
    19:00 +18°C° 1 mm 1 m/s 607 mmHg 89%
    20:00 +18°C° 0 mm 1 m/s 607 mmHg 89%
    21:00 +18°C° 0 mm 1 m/s 607 mmHg 88%
    22:00 +16°C° 0 mm 1 m/s 607 mmHg 88%
    23:00 +16°C° 0 mm 1 m/s 607 mmHg 88%

    Poimâine, 17 Decembrie, Marţi

    Timp Temperatura Precipitaţii Vânt Presiune Umiditate
    00:00 +16°C° 0 mm 1 m/s 607 mmHg 87%
    01:00 +16°C° 0 mm 1 m/s 606 mmHg 87%
    02:00 +16°C° 0 mm 1 m/s 606 mmHg 87%
    03:00 +16°C° 0 mm 1 m/s 606 mmHg 86%
    04:00 +15°C° 0 mm 1 m/s 606 mmHg 86%
    05:00 +16°C° 0 mm 1 m/s 607 mmHg 84%
    06:00 +18°C° 0 mm 1 m/s 607 mmHg 81%
    07:00 +18°C° 0 mm 1 m/s 608 mmHg 79%
    08:00 +20°C° 0 mm 1 m/s 609 mmHg 73%
    09:00 +21°C° 0 mm 2 m/s 609 mmHg 66%
    10:00 +24°C° 0 mm 2 m/s 610 mmHg 60%
    11:00 +24°C° 0.6 mm 2 m/s 609 mmHg 58%
    12:00 +25°C° 0.6 mm 2 m/s 609 mmHg 57%
    13:00 +25°C° 0.6 mm 2 m/s 609 mmHg 55%
    14:00 +24°C° 1.3 mm 2 m/s 608 mmHg 61%
    15:00 +23°C° 1.3 mm 2 m/s 607 mmHg 68%
    16:00 +21°C° 1.3 mm 1 m/s 606 mmHg 75%
    17:00 +20°C° 1.6 mm 1 m/s 606 mmHg 80%
    18:00 +19°C° 1.6 mm 1 m/s 606 mmHg 85%
    19:00 +18°C° 1.6 mm 1 m/s 606 mmHg 90%
    20:00 +18°C° 0.8 mm 1 m/s 607 mmHg 91%
    21:00 +18°C° 0.8 mm 1 m/s 607 mmHg 91%
    22:00 +18°C° 0.8 mm 1 m/s 608 mmHg 92%
    23:00 +18°C° 0.3 mm 1 m/s 608 mmHg 93%

    18 Decembrie, Miercuri

    Timp Temperatura Precipitaţii Vânt Presiune Umiditate
    00:00 +16°C° 0.3 mm 1 m/s 607 mmHg 94%
    01:00 +16°C° 0.3 mm 1 m/s 607 mmHg 95%
    02:00 +15°C° 0.4 mm 0 m/s 607 mmHg 95%
    03:00 +14°C° 0.4 mm 0 m/s 607 mmHg 95%
    04:00 +14°C° 0.4 mm 0 m/s 606 mmHg 94%
    05:00 +15°C° 0.1 mm 0 m/s 607 mmHg 92%
    06:00 +16°C° 0.1 mm 0 m/s 607 mmHg 89%
    07:00 +16°C° 0.1 mm 0 m/s 608 mmHg 86%
    08:00 +20°C° 0.3 mm 1 m/s 608 mmHg 80%
    09:00 +22°C° 0.3 mm 1 m/s 609 mmHg 75%
    10:00 +23°C° 0.3 mm 2 m/s 610 mmHg 69%
    11:00 +24°C° 1.6 mm 2 m/s 609 mmHg 67%
    12:00 +24°C° 1.6 mm 2 m/s 609 mmHg 66%
    13:00 +24°C° 1.6 mm 2 m/s 608 mmHg 65%
    14:00 +24°C° 2.6 mm 2 m/s 608 mmHg 68%
    15:00 +23°C° 2.6 mm 2 m/s 607 mmHg 72%
    16:00 +21°C° 2.6 mm 2 m/s 607 mmHg 75%
    17:00 +20°C° 1.8 mm 2 m/s 607 mmHg 81%
    18:00 +20°C° 1.8 mm 1 m/s 607 mmHg 87%
    19:00 +18°C° 1.8 mm 1 m/s 607 mmHg 93%
    20:00 +18°C° 0.6 mm 1 m/s 607 mmHg 94%
    21:00 +18°C° 0.6 mm 1 m/s 607 mmHg 95%
    22:00 +18°C° 0.6 mm 1 m/s 608 mmHg 95%
    23:00 +16°C° 0.5 mm 0 m/s 608 mmHg 95%

    19 Decembrie, Joi

    Timp Temperatura Precipitaţii Vânt Presiune Umiditate
    00:00 +15°C° 0.5 mm 0 m/s 607 mmHg 95%
    01:00 +15°C° 0.5 mm 0 m/s 607 mmHg 95%
    02:00 +15°C° 0.4 mm 0 m/s 607 mmHg 95%
    03:00 +15°C° 0.4 mm 0 m/s 607 mmHg 95%
    04:00 +15°C° 0.4 mm 0 m/s 607 mmHg 95%
    05:00 +15°C° 0.1 mm 0 m/s 607 mmHg 93%
    06:00 +16°C° 0.1 mm 0 m/s 608 mmHg 91%
    07:00 +17°C° 0.1 mm 0 m/s 608 mmHg 89%
    08:00 +20°C° 0.4 mm 1 m/s 609 mmHg 83%
    09:00 +21°C° 0.4 mm 1 m/s 609 mmHg 78%
    10:00 +23°C° 0.4 mm 2 m/s 610 mmHg 73%
    11:00 +23°C° 1.3 mm 2 m/s 609 mmHg 72%
    12:00 +23°C° 1.3 mm 1 m/s 609 mmHg 71%
    13:00 +24°C° 1.3 mm 1 m/s 608 mmHg 70%
    14:00 +23°C° 2 mm 1 m/s 608 mmHg 73%
    15:00 +22°C° 2 mm 1 m/s 607 mmHg 76%
    16:00 +22°C° 2 mm 1 m/s 607 mmHg 79%
    17:00 +21°C° 1.5 mm 1 m/s 607 mmHg 84%
    18:00 +20°C° 1.5 mm 1 m/s 607 mmHg 88%
    19:00 +19°C° 1.5 mm 1 m/s 607 mmHg 92%
    20:00 +18°C° 0.1 mm 1 m/s 607 mmHg 93%
    21:00 +18°C° 0.1 mm 1 m/s 608 mmHg 95%
    22:00 +18°C° 0.1 mm 1 m/s 608 mmHg 96%
    23:00 +18°C° 0.6 mm 1 m/s 608 mmHg 96%

    20 Decembrie, Vineri

    Timp Temperatura Precipitaţii Vânt Presiune Umiditate
    00:00 +16°C° 0.6 mm 1 m/s 608 mmHg 96%
    01:00 +16°C° 0.6 mm 1 m/s 608 mmHg 97%
    02:00 +16°C° 0.7 mm 1 m/s 608 mmHg 97%
    03:00 +16°C° 0.7 mm 1 m/s 608 mmHg 97%
    04:00 +16°C° 0.7 mm 1 m/s 607 mmHg 97%
    05:00 +16°C° 0.5 mm 1 m/s 608 mmHg 96%
    06:00 +15°C° 0.5 mm 0 m/s 608 mmHg 95%
    07:00 +15°C° 0.5 mm 0 m/s 609 mmHg 94%
    08:00 +19°C° 0.7 mm 1 m/s 609 mmHg 87%
    09:00 +20°C° 0.7 mm 1 m/s 610 mmHg 80%
    10:00 +21°C° 0.7 mm 2 m/s 611 mmHg 73%
    11:00 +23°C° 1 mm 2 m/s 610 mmHg 70%
    12:00 +23°C° 1 mm 1 m/s 610 mmHg 67%
    13:00 +24°C° 1 mm 1 m/s 609 mmHg 65%
    14:00 +23°C° 2.1 mm 1 m/s 609 mmHg 68%
    15:00 +23°C° 2.1 mm 1 m/s 608 mmHg 71%
    16:00 +22°C° 2.1 mm 1 m/s 607 mmHg 74%
    17:00 +21°C° 1.5 mm 1 m/s 607 mmHg 79%
    18:00 +20°C° 1.5 mm 1 m/s 607 mmHg 84%
    19:00 +19°C° 1.5 mm 1 m/s 607 mmHg 89%
    20:00 +19°C° 0.7 mm 1 m/s 608 mmHg 91%
    21:00 +18°C° 0.7 mm 1 m/s 608 mmHg 92%
    22:00 +18°C° 0.7 mm 1 m/s 608 mmHg 94%
    23:00 +17°C° 1.7 mm 2 m/s 608 mmHg 94%
    Arată mai mult